Weather History for Laconia, NH

Change the Weather History Date:

Thursday, January 3, 2013

  Actual Average Record
Temperature  
Mean Temperature 8 °F -  
Max Temperature 17 °F 33 °F 55 °F (2000)
Min Temperature 0 °F 15 °F -5 °F (2014)
Degree Days  
Heating Degree Days 56    
Moisture  
Dew Point -5 °F    
Average Humidity 56    
Maximum Humidity 73    
Minimum Humidity 35    
Precipitation  
Precipitation 0.00 in - - ()
Sea Level Pressure  
Sea Level Pressure 29.99 in    
Wind  
Wind Speed 7 mph (WSW)    
Max Wind Speed 13 mph    
Max Gust Speed 20 mph    
Visibility 10 miles    
Events      
Averages and records for this station are not official NWS values.
T = Trace of Precipitation, MM = Missing Value Source: NWS Daily Summary

Daily Weather History Graph

Daily Weather History Graph

Search for Another Location

Airport:

Trip Planner

Search our weather history database for the weather conditions in past years. The results will help you decide how hot, cold, wet, or windy it might be!

Date:

Astronomy

Jan. 03, 2013 Rise Set
Actual Time 7:19 AM EST 4:21 PM EST
Civil Twilight 6:46 AM EST 4:54 PM EST
Nautical Twilight 6:10 AM EST 5:30 PM EST
Astronomical Twilight 5:35 AM EST 6:05 PM EST
Moon 11:07 PM EST (1/3) 10:16 AM EST (1/3)
Length of Visible Light 10h 07m
Length of Day
9h 02m
Waning Gibbous, 65% of the Moon is Illuminated
Jan 3
Waning Gibbous
Jan 4
Last Quarter
Jan 11
New
Jan 18
First Quarter
Jan 26
Full

Hourly Weather History & Observations

Time (EST) Temp. Windchill Dew Point Humidity Pressure Visibility Wind Dir Wind Speed Gust Speed Precip Events Conditions
12:15 AM 1.4 °F -12.5 °F -9.4 °F 61% 30.03 in 10.0 mi WSW 8.1 mph - N/A   Clear
12:35 AM 1.4 °F -13.5 °F -9.4 °F 61% 30.04 in 10.0 mi WSW 9.2 mph - N/A   Clear
12:55 AM 1.4 °F -16.1 °F -9.4 °F 61% 30.03 in 10.0 mi WSW 12.7 mph 19.6 mph N/A   Clear
1:15 AM 1.4 °F -14.5 °F -9.4 °F 61% 30.04 in 10.0 mi SW 10.4 mph - N/A   Clear
1:35 AM 1.4 °F -9.9 °F -7.6 °F 66% 30.04 in 10.0 mi WSW 5.8 mph - N/A   Clear
1:55 AM 1.4 °F -12.5 °F -9.4 °F 61% 30.05 in 10.0 mi WSW 8.1 mph - N/A   Clear
2:15 AM 1.4 °F -14.5 °F -9.4 °F 61% 30.05 in 10.0 mi WSW 10.4 mph - N/A   Clear
3:15 AM 1.4 °F -12.5 °F -9.4 °F 61% 30.04 in 10.0 mi WSW 8.1 mph - N/A   Clear
3:35 AM 1.4 °F -12.5 °F -9.4 °F 61% 30.04 in 10.0 mi SW 8.1 mph - N/A   Clear
3:55 AM 3.2 °F -11.3 °F -7.6 °F 61% 30.03 in 10.0 mi WSW 9.2 mph 17.3 mph N/A   Clear
4:15 AM 3.2 °F -6.2 °F -9.4 °F 56% 30.03 in 10.0 mi SSW 4.6 mph - N/A   Clear
4:55 AM 1.4 °F - -7.6 °F 66% 30.03 in 10.0 mi Calm Calm - N/A   Clear
5:15 AM 3.2 °F - -7.6 °F 61% 30.02 in 10.0 mi Calm Calm - N/A   Clear
5:35 AM 1.4 °F -11.3 °F -7.6 °F 66% 30.03 in 10.0 mi WSW 6.9 mph - N/A   Clear
5:55 AM 1.4 °F -6.2 °F -7.6 °F 66% 30.02 in 10.0 mi SW 3.5 mph - N/A   Clear
6:15 AM 1.4 °F -6.2 °F -7.6 °F 66% 30.03 in 10.0 mi WSW 3.5 mph - N/A   Clear
6:35 AM -0.4 °F -12.0 °F -7.6 °F 72% 30.03 in 10.0 mi WSW 5.8 mph - N/A   Clear
6:55 AM 1.4 °F -9.9 °F -5.8 °F 72% 30.03 in 10.0 mi WSW 5.8 mph - N/A   Clear
7:35 AM 1.4 °F -9.9 °F -7.6 °F 66% 30.05 in 10.0 mi WSW 5.8 mph - N/A   Clear
7:55 AM 1.4 °F -6.2 °F -7.6 °F 66% 30.04 in 10.0 mi West 3.5 mph - N/A   Clear
8:15 AM 3.2 °F - -7.6 °F 61% 30.03 in 10.0 mi Calm Calm - N/A   Clear
8:35 AM 3.2 °F -6.2 °F -7.6 °F 61% 30.03 in 10.0 mi SW 4.6 mph - N/A   Clear
8:55 AM 5.0 °F - -5.8 °F 61% 30.03 in 10.0 mi Calm Calm - N/A   Clear
9:15 AM 6.8 °F -3.5 °F -5.8 °F 56% 30.03 in 10.0 mi SW 5.8 mph - N/A   Clear
9:35 AM 6.8 °F -6.9 °F -5.8 °F 56% 30.03 in 10.0 mi SW 9.2 mph - N/A   Clear
9:55 AM 8.6 °F 0.1 °F -5.8 °F 52% 30.03 in 10.0 mi SW 4.6 mph - N/A   Clear
10:15 AM 8.6 °F -1.3 °F -4.0 °F 57% 30.03 in 10.0 mi SW 5.8 mph - N/A   Clear
10:35 AM 10.4 °F 0.8 °F -2.2 °F 57% 30.02 in 10.0 mi SW 5.8 mph - N/A   Clear
10:55 AM 12.2 °F 2.9 °F -2.2 °F 53% 30.01 in 10.0 mi SW 5.8 mph - N/A   Clear
11:15 AM 14.0 °F 2.9 °F -2.2 °F 49% 30.01 in 10.0 mi WSW 8.1 mph - N/A   Clear
11:35 AM 15.8 °F 3.4 °F -0.4 °F 49% 30.00 in 10.0 mi West 10.4 mph - N/A   Clear
11:55 AM 17.6 °F 6.4 °F -2.2 °F 42% 29.99 in 10.0 mi West 9.2 mph - N/A   Clear
12:15 PM 17.6 °F 7.3 °F -2.2 °F 42% 29.98 in 10.0 mi SSW 8.1 mph - N/A   Clear
12:35 PM 17.6 °F 6.4 °F -2.2 °F 42% 29.97 in 10.0 mi SW 9.2 mph - N/A   Clear
12:55 PM 17.6 °F 6.4 °F -2.2 °F 42% 29.97 in 10.0 mi WSW 9.2 mph - N/A   Clear
1:15 PM 17.6 °F 4.3 °F -2.2 °F 42% 29.97 in 10.0 mi WSW 12.7 mph - N/A   Partly Cloudy
1:35 PM 17.6 °F 5.0 °F -2.2 °F 42% 29.97 in 10.0 mi West 11.5 mph - N/A   Partly Cloudy
2:15 PM 17.6 °F 5.7 °F -2.2 °F 42% 29.96 in 10.0 mi WSW 10.4 mph - N/A   Partly Cloudy
2:35 PM 17.6 °F 7.3 °F -4.0 °F 38% 29.95 in 10.0 mi WSW 8.1 mph - N/A   Partly Cloudy
2:55 PM 15.8 °F 6.1 °F -5.8 °F 38% 29.94 in 10.0 mi WSW 6.9 mph - N/A   Partly Cloudy
3:15 PM 17.6 °F 5.7 °F -5.8 °F 35% 29.94 in 10.0 mi WSW 10.4 mph - N/A   Partly Cloudy
3:35 PM 17.6 °F 7.3 °F -5.8 °F 35% 29.94 in 10.0 mi WSW 8.1 mph - N/A   Clear
3:55 PM 17.6 °F 7.3 °F -5.8 °F 35% 29.94 in 10.0 mi West 8.1 mph - N/A   Clear
4:15 PM 17.6 °F 8.2 °F -5.8 °F 35% 29.94 in 10.0 mi West 6.9 mph - N/A   Clear
4:55 PM 15.8 °F 6.1 °F -5.8 °F 38% 29.94 in 10.0 mi West 6.9 mph - N/A   Clear
6:55 PM 10.4 °F 0.8 °F -2.2 °F 57% 29.96 in 10.0 mi WSW 5.8 mph - N/A   Clear
7:15 PM 10.4 °F - -2.2 °F 57% 29.96 in 10.0 mi Calm Calm - N/A   Clear
7:35 PM 8.6 °F - -0.4 °F 67% 29.96 in 10.0 mi Calm Calm - N/A   Clear
7:55 PM 8.6 °F - -2.2 °F 62% 29.96 in 10.0 mi Calm Calm - N/A   Clear
8:15 PM 8.6 °F - -2.2 °F 62% 29.96 in 10.0 mi Calm Calm - N/A   Clear
8:35 PM 8.6 °F - -0.4 °F 67% 29.95 in 10.0 mi Calm Calm - N/A   Scattered Clouds
8:55 PM 6.8 °F - -2.2 °F 67% 29.95 in 10.0 mi Calm Calm - N/A   Partly Cloudy
9:15 PM 6.8 °F -3.5 °F -0.4 °F 72% 29.94 in 10.0 mi WSW 5.8 mph - N/A   Clear
9:35 PM 10.4 °F 2.2 °F -0.4 °F 62% 29.94 in 10.0 mi West 4.6 mph - N/A   Clear
9:55 PM 8.6 °F -3.7 °F -4.0 °F 57% 29.94 in 10.0 mi WSW 8.1 mph - N/A   Clear
10:15 PM 10.4 °F 0.8 °F -2.2 °F 57% 29.94 in 10.0 mi WSW 5.8 mph - N/A   Clear
10:55 PM 10.4 °F 2.2 °F -2.2 °F 57% 29.93 in 10.0 mi WSW 4.6 mph - N/A   Clear
11:55 PM 8.6 °F 2.0 °F 1.4 °F 73% 29.90 in 10.0 mi WSW 3.5 mph - N/A   Clear